�������l�o���
Date,Time,MP-1(��Sv/h),MP-2(��Sv/h),MP-3(��Sv/h),MP-4(��Sv/h),MP-5(��Sv/h),MP-6(��Sv/h),MP-7(��Sv/h),MP-8(��Sv/h),����,����(m/s),���J
2017/08/23,00:00,0.911,1.425,0.948,1.710,1.173,0.507,0.924,0.857,�쐼,4.4,�L
2017/08/23,00:10,0.911,1.425,0.949,1.715,1.174,0.508,0.924,0.858,�쐼,3.3,�L
2017/08/23,00:20,0.912,1.425,0.949,1.714,1.177,0.508,0.926,0.857,�쐼,3.0,�L
2017/08/23,00:30,0.911,1.425,0.948,1.714,1.175,0.507,0.924,0.858,�쐼,2.9,�L
2017/08/23,00:40,0.913,1.427,0.948,1.711,1.173,0.507,0.924,0.857,�쐼,2.6,�L
2017/08/23,00:50,0.915,1.426,0.952,1.712,1.173,0.510,0.925,0.857,��쐼,2.3,�L
2017/08/23,01:00,0.915,1.426,0.950,1.712,1.175,0.509,0.926,0.856,��,3.3,�L
2017/08/23,01:10,0.916,1.426,0.953,1.711,1.173,0.511,0.926,0.858,��,4.1,�L
2017/08/23,01:20,0.914,1.425,0.951,1.709,1.174,0.510,0.924,0.859,��,5.0,�L
2017/08/23,01:30,0.915,1.427,0.948,1.714,1.172,0.509,0.925,0.858,��쐼,6.0,��
2017/08/23,01:40,0.913,1.427,0.950,1.712,1.171,0.509,0.923,0.859,��쐼,5.6,��
2017/08/23,01:50,0.914,1.427,0.948,1.715,1.174,0.509,0.923,0.856,��,5.3,��
2017/08/23,02:00,0.914,1.427,0.949,1.713,1.173,0.509,0.923,0.857,��쐼,5.4,��
2017/08/23,02:10,0.913,1.427,0.949,1.712,1.176,0.510,0.923,0.858,��쐼,6.7,��
2017/08/23,02:20,0.914,1.426,0.949,1.714,1.172,0.508,0.925,0.857,��쐼,5.6,��
2017/08/23,02:30,0.913,1.427,0.948,1.710,1.173,0.509,0.922,0.858,��쐼,6.1,��
2017/08/23,02:40,0.914,1.428,0.948,1.711,1.172,0.508,0.924,0.858,�쐼,5.2,��
2017/08/23,02:50,0.914,1.429,0.949,1.717,1.174,0.509,0.924,0.858,�쐼,6.2,��
2017/08/23,03:00,0.915,1.429,0.951,1.716,1.174,0.510,0.925,0.858,���쐼,6.2,�L
2017/08/23,03:10,0.913,1.429,0.948,1.713,1.173,0.509,0.926,0.858,���쐼,5.5,��
2017/08/23,03:20,0.914,1.426,0.950,1.714,1.171,0.508,0.924,0.858,���쐼,5.8,�L
2017/08/23,03:30,0.913,1.428,0.950,1.715,1.175,0.510,0.925,0.858,��,5.1,��
2017/08/23,03:40,0.915,1.428,0.950,1.714,1.174,0.509,0.923,0.857,���쐼,6.5,��
2017/08/23,03:50,0.917,1.430,0.952,1.714,1.175,0.510,0.924,0.858,���쐼,6.8,��
2017/08/23,04:00,0.918,1.432,0.950,1.713,1.175,0.510,0.924,0.857,��,6.1,��
2017/08/23,04:10,0.917,1.429,0.951,1.717,1.175,0.509,0.924,0.857,��,5.1,��
2017/08/23,04:20,0.915,1.431,0.953,1.715,1.174,0.509,0.924,0.858,���k��,3.8,��
2017/08/23,04:30,0.917,1.433,0.950,1.716,1.176,0.511,0.927,0.858,���k��,4.6,�L
2017/08/23,04:40,0.917,1.431,0.950,1.717,1.175,0.511,0.926,0.858,���k��,5.3,�L
2017/08/23,04:50,0.921,1.433,0.951,1.718,1.175,0.511,0.925,0.859,���k��,5.8,��
2017/08/23,05:00,0.916,1.434,0.950,1.717,1.176,0.511,0.926,0.859,���k��,4.9,�L
2017/08/23,05:10,0.919,1.434,0.952,1.719,1.176,0.513,0.925,0.857,���k��,6.2,��
2017/08/23,05:20,0.918,1.433,0.952,1.717,1.174,0.510,0.925,0.857,���k��,5.9,�L
2017/08/23,05:30,0.919,1.434,0.952,1.719,1.175,0.512,0.924,0.860,���k��,5.5,�L
2017/08/23,05:40,0.919,1.433,0.953,1.718,1.177,0.511,0.925,0.858,��,4.1,�L
2017/08/23,05:50,0.921,1.432,0.954,1.719,1.174,0.510,0.925,0.859,��,3.2,�L
2017/08/23,06:00,0.919,1.434,0.952,1.717,1.176,0.511,0.926,0.860,���쐼,3.3,�L
2017/08/23,06:10,0.918,1.434,0.951,1.720,1.177,0.511,0.925,0.859,���쐼,3.9,��
2017/08/23,06:20,0.920,1.435,0.955,1.721,1.174,0.511,0.925,0.860,���쐼,2.9,��
2017/08/23,06:30,0.919,1.435,0.951,1.723,1.175,0.510,0.926,0.859,���쐼,3.4,��
2017/08/23,06:40,0.917,1.436,0.951,1.723,1.176,0.511,0.927,0.859,���쐼,2.3,��
2017/08/23,06:50,0.920,1.436,0.951,1.720,1.176,0.511,0.926,0.860,��,2.3,��
2017/08/23,07:00,0.920,1.437,0.952,1.722,1.175,0.510,0.927,0.859,���쐼,2.5,��
2017/08/23,07:10,0.921,1.436,0.952,1.724,1.177,0.511,0.926,0.860,���쐼,3.1,��
2017/08/23,07:20,0.923,1.436,0.955,1.719,1.178,0.511,0.926,0.858,���k��,2.3,��
2017/08/23,07:30,0.923,1.433,0.954,1.721,1.179,0.511,0.929,0.861,�k�k��,1.4,��
2017/08/23,07:40,0.924,1.436,0.953,1.724,1.178,0.512,0.928,0.859,���쓌,0.8,��
2017/08/23,07:50,0.923,1.437,0.954,1.723,1.183,0.511,0.930,0.861,��,0.9,��
2017/08/23,08:00,0.921,1.438,0.955,1.723,1.182,0.510,0.928,0.859,��,2.0,��
2017/08/23,08:10,0.921,1.436,0.950,1.722,1.181,0.512,0.931,0.859,���k��,1.7,��
2017/08/23,08:20,0.921,1.440,0.953,1.724,1.180,0.511,0.928,0.860,-,CALM,��
2017/08/23,08:30,0.922,1.442,0.953,1.722,1.180,0.513,0.930,0.858,-,CALM,��
2017/08/23,08:40,0.923,1.439,0.955,1.726,1.180,0.512,0.930,0.858,�쓌,1.1,��
2017/08/23,08:50,0.924,1.438,0.957,1.725,1.179,0.510,0.928,0.856,���쓌,0.6,��
2017/08/23,09:00,0.924,1.442,0.956,1.728,1.182,0.513,0.928,0.859,��,1.2,��
2017/08/23,09:10,0.924,1.443,0.952,1.727,1.183,0.512,0.928,0.860,�k��,1.2,��
2017/08/23,09:20,0.923,1.441,0.956,1.730,1.181,0.513,0.928,0.860,���k��,2.8,��
2017/08/23,09:30,0.923,1.441,0.957,1.729,1.184,0.513,0.930,0.860,���k��,1.2,��
2017/08/23,09:40,0.926,1.444,0.961,1.729,1.183,0.512,0.928,0.861,���k��,2.3,��
2017/08/23,09:50,0.925,1.441,0.958,1.732,1.183,0.513,0.929,0.858,���k��,4.3,��
2017/08/23,10:00,0.927,1.445,0.957,1.731,1.184,0.512,0.932,0.861,��,2.6,��
2017/08/23,10:10,0.928,1.443,0.958,1.733,1.185,0.511,0.930,0.859,���k��,2.6,��
2017/08/23,10:20,0.928,1.444,0.958,1.734,1.186,0.513,0.931,0.860,���k��,3.8,��
2017/08/23,10:30,0.926,1.443,0.960,1.734,1.187,0.513,0.932,0.862,��,4.6,�L
2017/08/23,10:40,0.927,1.444,0.959,1.734,1.188,0.513,0.931,0.861,���k��,4.9,��
2017/08/23,10:50,0.929,1.443,0.962,1.735,1.188,0.513,0.932,0.863,���k��,4.2,��
2017/08/23,11:00,0.928,1.444,0.961,1.733,1.187,0.512,0.934,0.861,���k��,5.0,�L
2017/08/23,11:10,0.929,1.445,0.960,1.734,1.189,0.514,0.931,0.861,���k��,4.2,�L
2017/08/23,11:20,0.929,1.447,0.960,1.733,1.189,0.514,0.931,0.861,���k��,4.6,�L
2017/08/23,11:30,0.929,1.449,0.960,1.734,1.192,0.513,0.934,0.861,��,3.4,�L
2017/08/23,11:40,0.929,1.449,0.957,1.736,1.192,0.515,0.932,0.861,��,4.4,�L
2017/08/23,11:50,0.933,1.451,0.954,1.739,1.194,0.514,0.934,0.862,���k��,3.5,��
2017/08/23,12:00,0.932,1.450,0.952,1.737,1.192,0.516,0.934,0.862,���k��,5.1,��
2017/08/23,12:10,0.931,1.447,0.948,1.736,1.193,0.517,0.935,0.864,�k��,3.4,��
2017/08/23,12:20,0.931,1.450,0.948,1.737,1.195,0.516,0.934,0.863,�k��,4.2,��
2017/08/23,12:30,0.931,1.452,0.956,1.739,1.194,0.517,0.936,0.864,�k��,4.1,��
2017/08/23,12:40,0.933,1.452,0.965,1.740,1.195,0.516,0.935,0.865,���k��,4.6,��
2017/08/23,12:50,0.931,1.454,0.962,1.740,1.195,0.516,0.936,0.862,���k��,3.5,��
2017/08/23,13:00,0.931,1.457,0.962,1.741,1.196,0.516,0.936,0.862,��,4.5,��
2017/08/23,13:10,0.935,1.457,0.965,1.744,1.197,0.516,0.937,0.864,���k��,5.4,��
2017/08/23,13:20,0.932,1.451,0.965,1.742,1.198,0.515,0.936,0.864,�k�k��,3.5,��
2017/08/23,13:30,0.933,1.455,0.961,1.743,1.199,0.514,0.934,0.864,�k�k��,3.2,��
2017/08/23,13:40,0.933,1.457,0.964,1.741,1.195,0.514,0.936,0.864,���k��,3.4,�L
2017/08/23,13:50,0.937,1.448,0.962,1.743,1.199,0.513,0.936,0.864,���k��,6.0,�L
2017/08/23,14:00,0.935,1.449,0.962,1.741,1.196,0.514,0.934,0.863,���k��,6.3,�L
2017/08/23,14:10,0.931,1.448,0.960,1.737,1.196,0.513,0.935,0.862,���k��,6.3,�L
2017/08/23,14:20,0.933,1.450,0.963,1.743,1.198,0.515,0.936,0.862,���k��,4.7,�L
2017/08/23,14:30,0.935,1.451,0.963,1.743,1.198,0.514,0.935,0.863,���k��,3.5,��
2017/08/23,14:40,0.933,1.450,0.962,1.741,1.199,0.514,0.937,0.865,���k��,3.4,��
2017/08/23,14:50,0.933,1.454,0.961,1.743,1.203,0.515,0.935,0.864,���k��,3.7,��
2017/08/23,15:00,0.935,1.453,0.963,1.743,1.202,0.517,0.938,0.865,�k��,4.1,��
2017/08/23,15:10,0.935,1.453,0.963,1.745,1.201,0.517,0.938,0.864,�k��,2.9,��
2017/08/23,15:20,0.935,1.455,0.965,1.745,1.201,0.516,0.939,0.865,�k��,2.0,��
2017/08/23,15:30,0.936,1.455,0.963,1.744,1.202,0.515,0.938,0.865,�k��,1.7,��
2017/08/23,15:40,0.938,1.455,0.963,1.740,1.198,0.516,0.939,0.866,���k��,1.5,��
2017/08/23,15:50,0.936,1.454,0.965,1.743,1.200,0.515,0.938,0.866,�k��,1.4,��
2017/08/23,16:00,0.933,1.453,0.967,1.743,1.202,0.515,0.937,0.866,�k�k��,0.9,��
2017/08/23,16:10,0.932,1.452,0.965,1.746,1.199,0.513,0.935,0.865,�k��,2.6,��
2017/08/23,16:20,0.935,1.453,0.966,1.742,1.199,0.515,0.938,0.867,-,CALM,��
2017/08/23,16:30,0.934,1.454,0.966,1.745,1.203,0.515,0.938,0.866,-,CALM,��
2017/08/23,16:40,0.934,1.454,0.965,1.749,1.202,0.514,0.938,0.865,�k�k��,0.9,��
2017/08/23,16:50,0.936,1.456,0.966,1.744,1.201,0.514,0.938,0.865,���k��,2.0,��
2017/08/23,17:00,0.935,1.455,0.965,1.744,1.202,0.515,0.939,0.865,��,2.0,��
2017/08/23,17:10,0.936,1.454,0.967,1.748,1.201,0.515,0.937,0.866,���k��,2.3,��
2017/08/23,17:20,0.936,1.454,0.967,1.744,1.199,0.515,0.936,0.867,���k��,2.3,��
2017/08/23,17:30,0.935,1.455,0.970,1.748,1.200,0.515,0.936,0.866,��,2.0,��
2017/08/23,17:40,0.934,1.456,0.965,1.746,1.201,0.514,0.939,0.866,��,1.7,��
2017/08/23,17:50,0.935,1.456,0.967,1.747,1.199,0.516,0.938,0.864,���k��,3.1,��
2017/08/23,18:00,0.933,1.457,0.966,1.746,1.201,0.514,0.936,0.865,���k��,4.0,��
2017/08/23,18:10,0.932,1.454,0.965,1.749,1.199,0.514,0.939,0.866,�k��,3.3,��
2017/08/23,18:20,0.933,1.457,0.965,1.743,1.197,0.514,0.936,0.867,���k��,4.3,��
2017/08/23,18:30,0.934,1.458,0.964,1.742,1.200,0.514,0.935,0.865,��,4.5,��
2017/08/23,18:40,0.936,1.455,0.963,1.745,1.200,0.514,0.936,0.863,��,4.4,��
2017/08/23,18:50,0.934,1.456,0.965,1.748,1.199,0.515,0.936,0.866,��,5.2,��
2017/08/23,19:00,0.934,1.458,0.966,1.744,1.201,0.514,0.937,0.865,��,6.1,��
2017/08/23,19:10,0.933,1.459,0.967,1.746,1.199,0.514,0.935,0.865,��,6.9,��
2017/08/23,19:20,0.934,1.458,0.967,1.746,1.197,0.513,0.937,0.868,���k��,6.8,��
2017/08/23,19:30,0.936,1.454,0.966,1.748,1.203,0.513,0.936,0.865,���k��,6.8,��
2017/08/23,19:40,0.934,1.459,0.967,1.744,1.201,0.513,0.937,0.865,���k��,6.5,��
2017/08/23,19:50,0.932,1.459,0.966,1.747,1.203,0.514,0.936,0.865,��,5.9,��
2017/08/23,20:00,0.936,1.458,0.965,1.749,1.202,0.515,0.936,0.866,��,5.9,��
2017/08/23,20:10,0.934,1.460,0.965,1.744,1.199,0.515,0.936,0.865,��,6.9,��
2017/08/23,20:20,0.937,1.457,0.966,1.746,1.198,0.514,0.937,0.863,��,6.9,��
2017/08/23,20:30,0.935,1.459,0.965,1.747,1.202,0.516,0.938,0.863,��,6.4,��
2017/08/23,20:40,0.934,1.459,0.966,1.748,1.201,0.516,0.939,0.863,��,5.4,��
2017/08/23,20:50,0.935,1.457,0.965,1.747,1.198,0.514,0.939,0.865,��,5.1,��
2017/08/23,21:00,0.936,1.460,0.967,1.748,1.200,0.515,0.937,0.865,���k��,4.8,��
2017/08/23,21:10,0.936,1.458,0.968,1.748,1.200,0.515,0.937,0.864,���k��,5.3,��
2017/08/23,21:20,0.933,1.459,0.965,1.748,1.201,0.515,0.938,0.864,���k��,6.2,��
2017/08/23,21:30,0.933,1.458,0.966,1.746,1.198,0.515,0.937,0.867,��,4.4,��
2017/08/23,21:40,0.934,1.458,0.967,1.748,1.199,0.514,0.937,0.866,���쐼,4.8,��
2017/08/23,21:50,0.932,1.459,0.966,1.747,1.199,0.514,0.937,0.864,���쐼,6.0,��
2017/08/23,22:00,0.935,1.459,0.965,1.746,1.201,0.517,0.938,0.866,���쐼,6.8,��
2017/08/23,22:10,0.934,1.461,0.967,1.745,1.201,0.516,0.938,0.866,���쐼,6.1,��
2017/08/23,22:20,0.933,1.460,0.966,1.747,1.200,0.515,0.940,0.867,���쐼,6.1,��
2017/08/23,22:30,0.934,1.458,0.966,1.747,1.201,0.516,0.939,0.865,���쐼,4.8,��
2017/08/23,22:40,0.935,1.459,0.967,1.750,1.200,0.515,0.936,0.864,��,6.4,��
2017/08/23,22:50,0.933,1.458,0.968,1.749,1.201,0.517,0.936,0.866,��,5.0,��
2017/08/23,23:00,0.934,1.457,0.967,1.750,1.200,0.515,0.936,0.866,��,5.5,��
2017/08/23,23:10,0.935,1.458,0.967,1.750,1.200,0.515,0.937,0.866,���k��,5.5,��
2017/08/23,23:20,0.933,1.459,0.964,1.752,1.198,0.515,0.937,0.865,��,5.7,��
2017/08/23,23:30,0.936,1.457,0.968,1.750,1.201,0.516,0.935,0.865,��,4.6,��
2017/08/23,23:40,0.935,1.459,0.967,1.749,1.199,0.515,0.937,0.866,��,4.1,��
2017/08/23,23:50,0.931,1.459,0.967,1.750,1.200,0.515,0.937,0.864,���k��,4.5,��
